Temperature
20 20 20 20 18 16 18 18 18 18 18 18 18 18 17 17 17 17 16 17 17 17 17 17 17 17 17 17 17 17 17 17 17 17 17 17 17 17 17 17 17 17 17 17 17 17 17 17 17
20 20 20 19 16 17 18 18 18 18 18 18 18 18 17 16 16 17 17 17 17 17 17 17 17 17 17 17 17 17 17 17 17 17 17 17 17 17 17 17 17 17 17 17 17 17 17 17 17
20 20 20 16 16 17 18 18 18 18 18 18 18 17 17 17 17 17 17 17 17 17 17 17 17 17 17 17 17 17 17 17 17 17 17 17 17 17 17 17 17 17 17 17 17 17 17 17 17
20 20 19 16 17 17 18 18 18 18 18 18 17 17 17 17 17 17 17 17 17 17 17 17 17 17 17 17 17 17 17 17 17 17 16 16 16 16 16 16 16 16 17 17 17 17 17 17 17
20 20 16 16 17 18 17 18 18 18 17 17 17 16 16 17 17 17 17 17 17 17 17 17 17 17 17 16 16 17 17 16 16 16 16 16 16 16 16 16 16 16 16 16 17 16 17 17 17
20 17 16 16 18 18 18 18 18 17 17 17 17 16 16 17 17 17 17 17 17 17 17 17 16 16 16 16 16 16 16 16 16 16 16 16 16 16 16 16 16 16 16 16 16 16 17 17 17
19 15 16 17 17 18 18 18 18 17 17 17 17 16 16 17 17 17 17 17 17 17 17 16 16 16 16 16 16 16 16 16 16 16 16 16 16 16 16 16 16 16 16 16 16 16 16 16 16
20 16 17 17 17 18 18 18 18 18 17 17 17 17 16 17 17 17 17 17 17 17 17 17 16 16 16 16 16 16 16 16 16 16 16 16 16 16 16 16 16 16 16 16 16 16 16 16 16
20 16 16 17 17 18 18 18 18 18 18 17 17 17 17 17 17 17 17 17 17 17 17 17 16 16 16 16 16 16 16 16 16 16 16 16 16 16 16 16 16 16 16 16 16 16 16 16 16
19 16 18 18 18 18 18 18 18 18 17 17 17 17 17 17 17 17 17 17 17 17 17 17 16 16 16 16 16 16 16 16 16 16 16 16 16 16 16 16 16 16 16 16 16 16 16 16 16
18 17 18 19 19 19 19 18 18 18 17 17 17 17 17 17 17 17 17 17 17 17 17 17 17 16 16 16 16 16 16 16 16 16 16 16 16 16 16 16 16 16 16 16 16 16 16 16 16
18 18 19 19 20 19 19 18 18 18 18 18 18 18 17 17 17 17 17 17 17 17 17 17 17 16 16 16 16 16 16 16 16 16 16 16 16 16 16 16 16 16 16 16 16 16 16 16 16
18 19 19 20 20 19 19 18 18 17 18 18 18 17 17 17 17 17 17 17 17 17 17 17 16 16 16 16 16 16 16 16 16 16 16 16 16 16 16 16 16 16 16 16 16 16 16 16 16
19 19 19 19 19 19 18 18 18 17 18 18 17 17 18 17 17 17 17 17 17 17 17 17 17 16 16 16 16 16 16 16 16 16 16 16 16 16 16 16 16 16 16 16 16 16 16 16 16
19 18 18 19 19 18 18 17 17 18 18 17 17 17 17 17 17 17 17 17 17 17 17 17 16 16 16 16 16 16 16 16 16 16 16 16 16 16 16 16 16 16 16 16 16 16 16 16 16
19 18 17 18 19 19 18 17 17 17 18 17 17 17 17 17 17 17 17 17 17 17 17 17 16 16 16 16 16 16 16 16 16 16 16 16 16 16 16 16 16 16 16 16 16 16 16 16 16
17 17 17 18 19 18 18 17 17 17 17 17 17 17 17 17 17 18 18 17 17 17 17 17 17 16 16 16 16 16 16 16 16 16 16 16 16 16 16 16 16 16 16 16 16 16 16 15 15
17 17 17 18 18 18 17 17 16 17 17 17 17 17 17 17 18 18 18 17 17 17 17 17 17 16 16 16 16 16 16 16 16 16 16 16 16 16 16 16 16 16 15 15 15 15 15 15 15
18 17 17 18 18 18 17 17 16 17 16 16 17 17 17 17 18 18 17 17 17 17 17 17 17 16 16 16 16 16 16 16 16 16 15 15 15 15 15 15 15 15 15 15 15 15 15 15 15
18 18 18 18 19 18 17 17 17 16 16 17 17 17 17 17 17 17 17 17 17 17 17 17 17 16 16 16 16 16 16 15 15 15 15 15 15 15 15 15 15 15 15 15 15 15 15 15 15
18 18 18 18 18 18 18 17 17 16 17 17 17 17 17 17 18 18 18 17 17 17 17 17 17 17 16 16 16 16 16 15 15 15 15 15 15 15 15 15 15 15 15 15 15 15 15 15 15
18 19 18 18 17 16 17 16 16 16 15 16 17 17 17 17 18 18 18 18 17 17 17 17 17 16 16 16 16 16 16 16 15 15 15 15 15 15 15 15 15 15 15 15 15 15 15 15 15
18 19 18 18 17 16 16 16 16 15 15 16 16 17 18 18 18 18 18 18 18 17 17 17 17 16 16 16 16 16 16 16 15 15 15 15 15 15 15 15 15 15 15 15 15 15 15 15 15
18 18 17 15 15 16 16 16 16 15 16 16 17 17 18 18 18 18 18 18 18 17 17 17 17 16 16 16 16 15 15 15 15 15 15 15 15 15 15 15 15 15 15 15 15 15 15 15 15
18 16 16 16 15 15 16 16 16 17 16 17 17 18 18 18 18 18 18 18 18 17 17 17 17 17 16 16 16 16 15 15 15 15 15 15 15 15 15 15 15 15 15 15 15 14 14 14 14
17 17 16 16 15 15 16 16 17 18 18 18 18 19 18 18 18 18 18 18 18 18 17 17 17 17 16 16 16 16 16 15 15 15 15 15 15 15 15 15 15 15 14 14 14 14 14 14 14
17 16 16 15 16 16 15 16 17 18 18 17 17 18 18 18 18 19 19 18 18 18 18 17 17 17 16 16 16 16 16 16 15 15 15 15 15 15 15 15 15 15 14 14 14 14 14 14 14
18 16 14 15 16 16 16 16 17 18 18 17 16 17 18 19 19 19 19 19 18 18 18 17 17 17 17 16 16 16 16 16 15 15 15 15 15 15 15 15 15 15 14 14 14 14 14 14 14
17 16 15 14 14 15 16 16 17 17 17 17 17 18 18 19 19 19 19 19 18 18 18 18 17 17 17 16 16 16 16 16 16 15 15 15 15 15 15 15 15 15 14 14 14 14 14 14 14
17 17 15 16 15 14 15 16 18 17 17 17 18 18 19 19 19 19 19 19 18 18 18 17 17 17 17 17 16 16 16 16 16 16 16 15 15 15 15 15 15 15 14 14 14 14 14 14 14
Wind_Speed
2 5 3 4 5 6 3 2 1 2 3 3 5 6 6 5 3 4 0 2 3 3 4 7 10 11 11 11 11 11 11 12 12 12 11 11 11 11 12 12 12 12 11 11 11 10 10 10 10
2 3 4 5 5 4 2 2 3 2 3 3 5 5 6 5 3 4 2 2 4 4 5 7 10 11 11 11 11 11 11 11 12 11 11 11 11 11 11 12 12 12 12 11 11 10 10 10 10
2 4 4 5 4 3 3 1 3 3 4 3 4 5 4 3 3 2 2 4 5 5 6 8 10 10 11 11 11 11 11 11 11 11 11 11 11 11 11 11 12 12 11 11 11 10 10 10 10
4 5 5 6 5 1 2 2 4 5 5 5 4 5 4 3 1 4 5 5 6 5 6 8 9 10 10 11 11 11 10 10 10 10 10 10 10 10 11 11 11 11 11 11 11 10 10 11 10
4 5 6 4 3 2 2 1 2 4 4 4 4 5 4 4 4 7 6 5 6 4 5 6 8 9 10 10 10 10 10 9 9 10 10 10 10 10 10 10 11 11 11 10 10 11 11 11 11
5 5 5 3 2 2 2 2 4 6 5 4 4 4 2 2 4 6 5 4 4 4 4 4 6 8 8 8 9 9 8 9 9 9 9 9 9 10 10 10 10 11 11 10 10 11 11 11 11
4 5 4 4 2 2 2 2 4 5 5 3 3 4 2 1 2 5 5 4 4 4 4 4 5 5 6 7 7 7 7 7 7 8 8 9 9 10 10 10 11 11 11 10 10 10 11 11 12
5 5 4 2 3 1 2 3 3 4 4 3 3 5 4 3 4 6 6 5 4 3 3 3 4 5 6 6 6 7 7 7 7 7 8 9 10 10 10 10 10 10 10 10 10 10 11 11 12
4 5 3 3 5 3 2 4 3 4 5 3 3 3 4 7 7 7 5 3 2 2 2 2 2 4 5 5 6 7 7 7 8 8 8 9 9 10 10 10 10 10 10 11 10 10 11 11 11
5 4 3 3 5 5 4 4 4 4 5 3 5 5 7 8 8 7 5 3 2 1 1 0 1 2 4 4 5 6 6 7 8 8 8 8 8 9 9 10 11 11 12 11 11 10 11 10 9
4 4 2 2 4 5 5 4 3 6 3 4 7 8 8 7 6 5 4 3 3 2 1 1 1 2 2 3 4 5 5 6 7 7 7 7 8 9 9 9 10 10 11 11 10 10 9 9 8
4 2 3 3 4 5 4 4 4 3 2 5 8 9 8 8 6 5 5 3 2 2 2 1 1 2 3 3 3 4 4 4 5 6 6 6 6 6 6 6 7 8 8 9 9 8 9 9 8
4 2 4 5 7 6 7 5 4 2 4 7 9 8 7 6 4 3 3 3 3 3 2 2 3 3 3 4 3 4 3 4 4 5 5 5 4 3 4 5 6 7 8 7 7 7 7 7 7
3 5 5 5 6 4 6 3 3 2 6 8 8 7 6 5 4 3 3 3 3 3 3 2 3 3 4 3 2 2 3 4 5 5 5 5 5 4 4 4 5 6 7 7 7 6 5 5 6
5 6 6 3 3 3 6 4 0 3 7 8 6 5 4 3 3 4 4 4 4 3 3 4 4 4 4 3 3 3 4 5 5 5 5 6 5 5 5 4 4 5 6 7 8 7 6 5 6
5 5 3 2 2 2 5 2 2 4 8 7 5 4 3 3 3 3 3 4 4 4 4 4 4 5 4 4 4 4 4 5 5 5 6 6 6 6 5 4 3 5 6 6 4 4 5 5 5
4 3 1 2 1 3 4 3 3 5 7 7 5 4 4 3 2 3 3 4 4 4 5 4 4 5 4 4 4 5 5 5 5 6 5 6 6 6 6 4 4 5 6 4 4 4 4 4 4
3 3 2 2 2 3 3 4 3 5 7 7 5 4 4 5 5 4 3 3 4 4 4 5 5 4 4 4 3 3 4 4 5 5 5 6 6 6 6 5 4 5 4 4 4 5 5 4 3
5 4 2 3 3 3 4 5 5 6 6 7 6 6 6 6 4 3 3 3 4 4 4 4 5 4 4 3 3 3 2 2 2 4 6 5 5 6 6 4 4 4 4 3 4 3 5 4 2
4 3 1 2 1 3 3 4 4 6 8 9 10 9 9 6 4 4 4 4 4 5 4 4 4 4 4 3 2 2 2 1 1 3 5 6 6 5 5 5 3 3 4 4 4 3 3 3 3
2 5 4 3 1 2 1 4 4 4 5 6 7 8 8 9 8 7 6 5 5 5 6 6 5 4 4 4 3 3 3 3 3 3 2 4 5 6 6 5 4 4 3 3 3 3 3 2 2
3 4 5 3 2 2 1 3 6 5 5 8 9 8 9 9 8 7 7 6 6 6 6 6 5 5 4 4 5 5 3 2 0 0 1 3 5 5 6 6 5 4 3 3 2 2 2 3 2
4 2 4 2 3 1 0 2 7 2 6 10 11 11 10 10 10 9 9 8 7 6 5 5 5 4 4 4 5 5 3 2 1 1 2 3 3 5 5 5 5 4 3 3 3 3 3 2 2
5 6 6 5 4 2 3 4 6 4 7 7 11 11 11 11 10 9 7 6 5 4 5 6 6 5 4 5 5 5 5 4 3 2 1 1 2 2 4 5 4 4 3 3 3 3 3 3 3
5 6 3 3 2 5 3 3 8 7 7 9 10 12 12 11 10 9 8 8 7 7 6 6 7 5 5 5 4 5 5 5 4 3 2 1 0 1 1 2 2 2 3 3 4 3 3 3 3
5 7 6 4 4 4 2 5 7 6 5 5 6 8 9 10 10 10 10 10 9 8 8 8 7 6 6 5 5 4 4 3 3 3 2 2 2 1 0 2 2 3 3 3 4 3 3 3 3
7 4 6 6 2 1 5 6 8 3 2 0 3 5 8 10 11 11 10 10 9 9 9 9 8 7 6 6 5 5 5 4 4 3 2 2 2 1 2 2 3 3 3 4 4 3 3 3 3
5 8 6 5 3 2 5 5 5 6 4 2 3 7 8 8 9 9 9 9 9 9 8 7 8 8 7 6 6 5 5 5 4 3 3 3 2 2 3 3 2 2 3 3 3 3 2 3 2
4 4 5 4 4 5 2 6 5 6 5 4 6 6 8 9 10 10 9 8 8 7 7 7 7 6 6 6 5 5 4 4 4 3 3 3 3 3 3 3 3 3 2 2 3 3 3 3 2
5 7 7 5 4 4 3 7 5 5 4 4 4 5 6 7 8 8 8 7 7 7 8 8 7 7 7 6 6 5 4 4 4 4 4 3 3 3 3 4 3 3 3 2 3 2 2 2 2
Wind_Direction
54 78 75 57 57 56 52 8 39 56 62 52 62 75 87 71 80 114 175 89 104 86 76 93 97 93 90 89 88 87 86 85 82 80 77 75 73 72 72 71 71 73 72 69 69 69 68 69 67
90 86 57 60 78 75 18 0 66 62 122 110 64 59 69 64 65 95 99 92 100 96 81 92 98 95 90 86 86 84 86 84 82 80 77 76 74 72 71 69 70 70 71 69 66 66 66 66 66
80 56 76 68 86 128 144 113 106 80 76 78 70 50 62 69 85 113 142 120 95 87 88 100 100 97 92 88 85 85 85 83 81 81 78 75 72 70 69 68 67 67 68 68 65 64 64 66 66
73 46 57 70 81 129 151 138 126 105 61 49 83 67 55 33 97 134 131 114 100 85 91 103 102 98 93 87 84 83 83 83 82 79 77 73 70 66 64 65 65 64 65 64 63 63 64 63 64
62 73 64 58 47 22 58 96 90 85 66 51 77 80 40 358 86 116 119 112 106 92 87 104 105 102 97 91 83 79 81 81 79 74 71 69 65 62 60 62 60 59 60 61 61 63 64 62 65
56 67 81 86 52 27 46 53 89 83 84 71 79 87 50 23 101 118 112 106 102 98 76 92 106 104 99 92 84 76 77 77 74 70 66 63 58 56 55 57 56 55 56 58 61 66 63 62 65
97 86 101 116 105 55 96 74 91 98 91 85 103 95 95 108 103 112 106 100 90 81 68 55 65 78 85 83 78 72 72 72 69 64 60 53 49 48 49 49 49 51 53 57 63 66 65 63 65
115 98 87 98 123 119 110 89 85 97 106 101 99 122 156 171 116 102 91 81 76 71 61 53 50 48 52 54 62 64 62 66 65 64 58 51 43 39 39 38 40 46 50 56 63 65 65 65 66
86 77 111 163 156 156 129 101 75 76 91 70 63 112 140 128 117 106 95 74 72 82 58 50 43 38 42 44 50 51 48 51 54 53 52 46 39 33 32 35 41 47 52 59 60 63 66 66 65
77 107 173 185 164 146 128 111 121 97 82 73 73 76 105 118 124 129 138 152 161 168 218 125 51 38 35 42 45 44 49 50 52 52 50 48 44 37 36 37 44 50 55 58 59 62 64 64 62
96 138 147 113 132 124 115 94 93 117 119 165 151 140 130 127 130 141 155 169 184 189 194 174 110 57 54 44 50 47 50 54 55 57 56 55 48 42 37 38 37 42 50 51 52 58 61 63 66
96 83 120 121 116 109 115 104 84 103 173 156 146 140 138 142 150 160 167 173 166 160 177 156 113 97 79 65 56 55 57 56 54 57 62 64 52 42 36 38 37 43 49 52 53 60 64 65 66
82 73 73 93 88 96 92 87 102 81 98 114 119 123 134 139 145 156 165 168 161 162 173 160 125 114 95 78 63 69 62 60 61 62 65 76 71 51 39 36 43 46 53 58 55 56 60 60 60
113 89 75 77 81 85 100 76 80 115 121 121 129 139 147 151 156 149 157 158 160 159 159 146 129 122 108 89 82 76 71 72 72 67 68 80 85 79 62 46 46 46 52 62 67 63 63 60 61
94 82 53 46 81 102 97 51 42 156 137 138 149 155 159 167 169 177 176 164 166 161 144 139 132 113 106 97 92 85 78 83 75 70 76 84 88 86 79 66 51 44 58 71 70 63 61 60 56
65 68 60 328 108 127 115 184 242 157 149 154 162 166 168 185 193 194 174 156 154 148 139 139 133 116 107 97 86 78 76 81 76 77 78 80 85 89 83 69 51 54 68 73 72 61 63 54 53
47 101 139 307 161 131 140 207 226 164 160 170 177 176 177 186 203 210 187 162 156 157 147 134 124 124 118 101 86 76 71 68 67 72 73 77 82 85 84 72 59 69 70 64 75 61 70 68 61
182 161 172 227 244 146 173 220 212 182 176 184 188 188 192 200 214 207 182 157 149 150 143 137 126 123 117 101 84 67 59 50 54 57 61 74 79 83 83 74 65 76 74 62 68 73 62 67 63
148 150 184 240 217 165 204 226 222 195 188 193 199 202 210 221 228 196 167 152 138 134 139 148 146 146 135 119 110 94 71 42 36 41 53 62 72 74 78 76 66 72 79 79 85 86 72 51 40
137 148 186 293 207 167 208 249 232 200 204 201 200 204 210 214 207 198 182 169 166 164 163 160 162 162 157 141 126 118 114 80 51 32 44 48 59 66 78 78 75 74 83 75 72 84 89 50 35
174 181 190 204 55 57 92 309 249 227 212 209 207 204 209 209 203 202 194 188 178 178 179 176 169 164 160 142 114 90 66 48 33 23 21 24 50 64 73 78 81 75 83 90 82 93 107 106 40
216 204 168 154 118 289 116 286 276 229 220 219 216 208 211 212 203 200 198 194 192 195 185 170 165 162 156 149 140 135 129 128 150 344 17 28 46 61 69 76 80 78 78 83 79 87 98 116 98
192 140 121 114 129 9 329 215 286 222 230 232 222 214 210 207 201 200 200 199 196 189 179 171 161 160 157 150 146 136 131 135 109 66 58 43 34 49 66 75 77 77 75 79 74 77 82 100 122
129 78 63 52 72 309 241 190 282 234 223 230 219 215 207 202 201 201 196 184 185 180 171 167 164 169 162 154 152 152 151 151 134 117 96 51 28 27 49 72 73 75 77 81 84 83 84 86 95
100 98 52 7 6 261 247 203 255 253 231 222 215 211 204 196 193 192 188 186 187 183 179 175 170 175 169 164 168 170 167 163 163 168 171 152 98 20 11 71 78 73 77 84 88 85 78 80 90
164 144 157 190 223 278 286 237 256 269 259 227 211 198 188 187 190 193 193 190 191 189 182 178 179 182 176 175 181 175 165 158 171 178 180 180 185 204 172 115 97 83 81 82 84 80 78 78 80
144 168 161 138 166 272 283 288 302 305 335 75 167 170 187 192 193 196 194 190 191 189 187 185 181 181 182 182 178 175 171 173 181 176 178 182 190 181 139 127 106 89 85 87 91 83 73 80 75
148 144 112 126 156 254 295 288 270 291 288 273 199 198 201 195 193 194 193 192 191 189 185 180 180 184 181 175 180 184 183 184 182 169 180 189 187 153 140 134 116 99 91 92 91 85 75 83 67
117 125 128 133 157 161 258 276 240 239 249 238 227 211 199 193 192 192 195 191 183 174 173 178 182 179 177 179 181 177 181 180 180 187 196 194 181 165 159 149 139 134 124 115 108 100 97 94 68
166 169 153 161 204 174 180 267 279 248 250 231 224 209 196 193 190 187 184 173 172 176 179 182 183 185 186 179 175 182 180 176 187 200 199 184 178 170 164 151 149 151 150 139 135 132 119 118 105
Height
1505 1505 1506 1508 1511 1522 1527 1525 1522 1522 1522 1523 1523 1523 1525 1528 1531 1537 1535 1533 1533 1534 1534 1534 1534 1534 1535 1535 1535 1535 1535 1535 1535 1535 1534 1534 1534 1534 1534 1533 1533 1533 1533 1533 1533 1533 1533 1533 1533
1506 1506 1508 1509 1519 1533 1531 1524 1523 1523 1523 1524 1525 1526 1527 1529 1531 1532 1533 1534 1535 1535 1535 1536 1536 1536 1537 1536 1536 1537 1536 1537 1536 1536 1536 1536 1536 1536 1536 1535 1535 1535 1535 1535 1535 1535 1535 1535 1535
1506 1507 1509 1513 1524 1532 1530 1524 1523 1524 1524 1525 1527 1528 1530 1532 1533 1534 1535 1535 1536 1537 1537 1538 1538 1538 1538 1538 1538 1538 1538 1538 1538 1538 1538 1538 1538 1538 1537 1537 1537 1537 1536 1536 1536 1536 1537 1537 1536
1508 1509 1511 1520 1527 1526 1524 1523 1523 1524 1525 1526 1528 1531 1532 1534 1535 1536 1536 1537 1538 1538 1539 1539 1540 1540 1540 1540 1540 1540 1540 1540 1540 1540 1540 1540 1540 1540 1539 1539 1539 1539 1538 1538 1538 1538 1538 1538 1538
1508 1510 1518 1527 1527 1525 1524 1524 1524 1524 1527 1528 1529 1532 1535 1536 1536 1537 1538 1539 1540 1540 1541 1541 1542 1542 1542 1543 1543 1542 1542 1542 1542 1542 1542 1542 1542 1542 1541 1541 1541 1540 1540 1540 1540 1540 1540 1539 1539
1510 1512 1527 1533 1529 1525 1525 1525 1525 1526 1529 1530 1532 1534 1537 1538 1538 1539 1540 1541 1542 1542 1543 1543 1544 1544 1544 1545 1545 1545 1544 1544 1544 1544 1544 1544 1544 1544 1543 1543 1543 1542 1542 1542 1542 1541 1541 1541 1541
1511 1518 1528 1531 1530 1528 1526 1526 1527 1528 1530 1532 1533 1535 1537 1539 1540 1541 1542 1543 1544 1544 1545 1545 1546 1546 1546 1547 1547 1547 1546 1546 1546 1546 1546 1546 1546 1546 1545 1545 1545 1545 1544 1544 1544 1543 1543 1543 1543
1512 1519 1528 1531 1531 1529 1527 1527 1529 1529 1531 1533 1534 1535 1538 1540 1541 1542 1544 1545 1546 1546 1547 1548 1548 1548 1548 1548 1549 1549 1548 1548 1548 1548 1548 1548 1548 1548 1548 1547 1547 1546 1546 1546 1546 1545 1545 1545 1545
1513 1523 1531 1530 1530 1528 1527 1528 1530 1531 1532 1534 1535 1536 1538 1540 1542 1544 1545 1546 1547 1548 1549 1550 1550 1550 1550 1551 1551 1551 1550 1550 1550 1550 1550 1550 1550 1550 1549 1549 1549 1548 1548 1548 1547 1547 1547 1547 1547
1514 1527 1526 1524 1524 1525 1527 1528 1530 1532 1534 1535 1536 1538 1540 1541 1543 1545 1546 1547 1548 1550 1551 1551 1552 1552 1552 1552 1552 1553 1552 1552 1552 1552 1552 1552 1552 1552 1551 1551 1551 1550 1550 1550 1549 1549 1549 1549 1548
1517 1523 1522 1523 1524 1525 1527 1529 1531 1533 1535 1536 1537 1539 1541 1543 1544 1546 1547 1549 1550 1551 1552 1552 1553 1553 1554 1554 1554 1554 1554 1554 1554 1554 1554 1554 1554 1553 1553 1553 1553 1552 1552 1552 1551 1551 1551 1551 1550
1519 1521 1522 1524 1525 1526 1528 1530 1532 1533 1535 1536 1538 1539 1542 1544 1545 1547 1548 1550 1551 1552 1553 1553 1554 1555 1555 1555 1556 1556 1556 1556 1556 1556 1556 1556 1555 1555 1555 1555 1554 1554 1554 1553 1553 1553 1553 1553 1552
1521 1523 1524 1525 1526 1528 1529 1532 1533 1535 1536 1537 1539 1542 1543 1545 1547 1548 1550 1551 1552 1553 1553 1554 1555 1556 1556 1557 1557 1557 1557 1557 1557 1557 1557 1557 1557 1557 1556 1556 1556 1556 1555 1555 1555 1555 1555 1554 1554
1523 1525 1526 1528 1528 1530 1531 1534 1535 1537 1537 1539 1541 1543 1545 1546 1548 1549 1550 1551 1552 1553 1554 1555 1556 1557 1557 1558 1558 1558 1558 1558 1558 1558 1558 1558 1558 1558 1558 1557 1557 1557 1557 1557 1557 1557 1556 1556 1556
1525 1528 1530 1530 1530 1532 1534 1537 1536 1537 1538 1540 1542 1544 1546 1547 1549 1550 1551 1552 1553 1554 1555 1556 1557 1558 1558 1559 1559 1559 1559 1559 1560 1560 1560 1559 1559 1559 1559 1559 1559 1558 1558 1558 1558 1558 1558 1558 1558
1527 1533 1538 1533 1532 1533 1538 1543 1537 1538 1539 1541 1542 1544 1546 1548 1549 1551 1552 1553 1554 1555 1556 1557 1558 1558 1559 1559 1560 1560 1560 1560 1561 1561 1561 1561 1560 1560 1560 1560 1560 1560 1560 1559 1559 1560 1560 1560 1560
1535 1542 1541 1537 1532 1534 1537 1541 1537 1538 1539 1541 1542 1544 1546 1548 1549 1551 1552 1553 1554 1555 1556 1557 1558 1559 1560 1560 1560 1561 1561 1561 1561 1561 1562 1562 1562 1562 1561 1561 1561 1561 1561 1561 1561 1561 1561 1561 1561
1541 1542 1541 1540 1534 1535 1538 1539 1537 1538 1539 1540 1542 1544 1545 1547 1549 1550 1552 1553 1554 1556 1557 1558 1559 1559 1560 1560 1561 1561 1562 1562 1562 1562 1562 1563 1563 1562 1562 1562 1562 1562 1562 1562 1562 1562 1562 1562 1562
1533 1538 1540 1538 1533 1535 1538 1538 1537 1537 1538 1540 1541 1543 1544 1546 1548 1550 1551 1553 1554 1555 1557 1558 1559 1560 1560 1561 1561 1562 1562 1563 1563 1563 1563 1563 1563 1563 1563 1563 1563 1563 1563 1563 1563 1563 1563 1563 1563
1533 1538 1539 1536 1532 1535 1538 1538 1535 1535 1536 1537 1538 1540 1542 1544 1547 1549 1550 1552 1553 1555 1556 1557 1559 1560 1560 1561 1562 1562 1563 1563 1564 1564 1564 1564 1564 1564 1564 1563 1563 1563 1563 1563 1563 1563 1563 1563 1564
1533 1537 1537 1538 1534 1535 1538 1540 1536 1533 1534 1535 1537 1538 1540 1542 1544 1546 1548 1550 1552 1554 1555 1557 1558 1559 1560 1561 1562 1563 1563 1564 1564 1564 1564 1564 1564 1564 1564 1564 1564 1564 1563 1563 1564 1564 1564 1564 1564
1535 1529 1531 1534 1541 1546 1542 1553 1538 1533 1533 1532 1533 1535 1537 1539 1542 1544 1546 1548 1550 1553 1554 1556 1557 1559 1560 1561 1562 1563 1563 1564 1564 1565 1565 1565 1565 1565 1565 1565 1564 1564 1564 1564 1564 1564 1564 1564 1564
1529 1526 1530 1534 1540 1547 1545 1550 1542 1533 1533 1529 1528 1530 1533 1536 1539 1541 1544 1546 1549 1551 1553 1555 1557 1558 1560 1561 1562 1562 1563 1564 1565 1565 1565 1565 1565 1565 1565 1565 1565 1565 1564 1564 1564 1564 1564 1564 1565
1525 1530 1535 1541 1546 1556 1547 1551 1545 1534 1527 1523 1523 1525 1528 1532 1535 1539 1542 1544 1547 1550 1552 1554 1556 1557 1559 1560 1561 1562 1563 1564 1565 1565 1566 1566 1566 1566 1566 1566 1565 1565 1565 1565 1564 1564 1564 1564 1565
1527 1540 1554 1557 1562 1559 1544 1546 1539 1521 1518 1517 1517 1520 1523 1528 1532 1535 1539 1541 1544 1547 1550 1552 1554 1556 1558 1559 1561 1562 1563 1564 1565 1565 1566 1566 1566 1566 1566 1566 1566 1566 1565 1565 1565 1565 1564 1564 1564
1528 1535 1553 1562 1563 1557 1545 1546 1529 1515 1513 1512 1514 1516 1520 1525 1529 1532 1535 1539 1542 1544 1547 1550 1552 1554 1556 1558 1560 1561 1563 1564 1564 1565 1566 1566 1566 1566 1566 1566 1566 1566 1566 1565 1565 1565 1564 1564 1564
1529 1534 1535 1548 1551 1556 1550 1538 1523 1513 1512 1511 1512 1515 1518 1521 1525 1529 1532 1536 1539 1542 1545 1548 1550 1553 1555 1557 1558 1560 1561 1563 1564 1564 1565 1566 1566 1566 1566 1566 1566 1566 1566 1565 1565 1564 1564 1564 1564
1521 1527 1540 1548 1557 1560 1550 1542 1534 1518 1514 1512 1512 1513 1515 1519 1523 1526 1530 1533 1537 1540 1543 1546 1549 1551 1553 1555 1557 1558 1560 1562 1563 1563 1564 1565 1565 1566 1566 1566 1566 1566 1565 1565 1565 1565 1564 1564 1564
1525 1529 1534 1544 1547 1556 1557 1545 1519 1515 1512 1511 1511 1511 1513 1516 1520 1523 1527 1531 1534 1538 1541 1544 1546 1549 1551 1553 1555 1557 1559 1560 1561 1562 1563 1564 1565 1565 1565 1565 1565 1565 1565 1565 1565 1565 1564 1564 1564
1517 1522 1530 1541 1546 1548 1552 1542 1511 1511 1509 1509 1510 1510 1512 1515 1518 1521 1525 1528 1532 1535 1538 1541 1544 1546 1549 1551 1553 1555 1557 1559 1560 1561 1562 1563 1564 1565 1565 1565 1565 1565 1565 1565 1565 1565 1564 1564 1564